This demonstration page uses our WeatherBlox Daily Observations layout. Learn more.

Left ArrowRight Arrow

44.31136, -96.79839

Hourly Observations for June 8, 2019

Temp ( °F °C ) Dew Point ( °F °C ) Humidity (%) Winds ( mph kmh ) Pressure ( in mb ) Visibility ( mi km ) Precip ( " mm )
1:56 am 01:56 Clear 72 22.2 58 14.4 61 61 SSE 16 26 29.84 1011 10 16 0.00 0.00
2:56 am 02:56 Clear 72 22.2 58 14.4 61 61 S 15 24 29.85 1011 10 16 0.00 0.00
3:56 am 03:56 Clear 69 20.6 58 14.4 68 68 SSE 14 22 29.85 1011 10 16 0.00 0.00
4:56 am 04:56 Clear 68 20 58 14.4 70 70 SSE 12 19 29.86 1011 10 16 0.00 0.00
5:56 am 05:56 Sunny 67 19.4 59 15 76 76 SSE 14 22 29.87 1011 10 16 0.00 0.00
6:56 am 06:56 Sunny 67 19.4 60 15.6 79 79 SE 14 22 29.87 1012 10 16 0.00 0.00
7:56 am 07:56 Sunny 71 21.7 61 16.1 71 71 SSE 17 28 29.87 1012 10 16 0.00 0.00
8:56 am 08:56 Sunny 74 23.3 62 16.7 67 67 S 20 31 29.88 1012 10 16 0.00 0.00
9:56 am 09:56 Sunny 78 25.6 62 16.7 58 58 S 21 33 29.87 1012 10 16 0.00 0.00
10:56 am 10:56 Sunny 81 27.2 64 17.8 57 57 S 21 33 29.87 1012 10 16 0.00 0.00
11:56 am 11:56 Sunny 82 27.8 63 17.2 53 53 S 21 33 29.88 1012 10 16 0.00 0.00
12:56 pm 12:56 Mostly Sunny 84 28.9 64 17.8 51 51 SSW 15 24 29.87 1012 10 16 0.00 0.00
1:56 pm 13:56 Mostly Sunny 84 28.9 61 16.1 46 46 S 16 26 29.86 1011 10 16 0.00 0.00
2:56 pm 14:56 Mostly Sunny 84 28.9 60 15.6 44 44 S 15 24 29.86 1011 10 16 0.00 0.00
3:56 pm 15:56 Partly Cloudy 85 29.4 62 16.7 46 46 SSW 9 15 29.85 1011 10 16 0.00 0.00
4:56 pm 16:56 Mostly Sunny 79 26.1 64 17.8 60 60 WSW 7 11 29.85 1011 10 16 0.00 0.03
5:56 pm 17:56 Sunny 79 26.1 64 17.8 60 60 SW 5 7 29.85 1011 10 16 0.00 0.00
6:56 pm 18:56 Sunny 78 25.6 65 18.3 64 64 SSW 6 9 29.85 1011 10 16 0.00 0.00
7:56 pm 19:56 Mostly Cloudy 74 23.3 65 18.3 74 74 WNW 3 6 29.88 1012 10 16 0.00 0.00
8:56 pm 20:56 Mostly Sunny 73 22.8 66 18.9 79 79 NW 13 20 29.90 1013 10 16 0.00 0.00
9:56 pm 21:56 Partly Cloudy 68 20 63 17.2 84 84 NW 10 17 29.92 1013 10 16 0.00 0.00
11:11 pm 23:11 Mostly Cloudy 66 19 63 17 88 88 NW 12 19 29.93 1013 10 16 0.00 0.00
11:35 pm 23:35 Cloudy with Light Rain 64 18 63 17 94 94 WNW 9 15 29.95 1014 10 16 0.00 0.03
11:56 pm 23:56 Cloudy with Light Rain 64 17.8 62 16.7 93 93 WNW 16 26 30.00 1016 7 11 0.00 0.03

Powered by AerisWeather